Location: *
(34.8620°S, 39.3380°E)
Time: 22:50:02
(UTC+00:00)

Cosmos 1459 Rocket - Pass Details

Date: 27 July 2021
Orbit: 937 x 999 km, 83.0° (Epoch: 20 September)

Event Time Altitude Azimuth Distance (km) Brightness Sun altitude
Rises 02:51:30 0° 192° (SSW) 3,674 6.8 -18.3°
Reaches altitude 10° 02:54:05 10° 196° (SSW) 2,712 6.1 -17.8°
Maximum altitude 03:00:05 54° 271° (W) 1,153 4.0 -16.6°
Drops below altitude 10° 03:05:57 10° 346° (NNW) 2,652 6.3 -15.4°
Sets 03:08:27 0° 351° (N) 3,585 7.0 -14.9°
